Regional Weather Roundup
Issued by NWS Jackson, KY

Home | Current Version | Previous Version | Graphics & Text | Print | Product List | Glossary On
Versions: 1 2 3 4 5 6 7 8 9 10 11 12 13 14 15 16 17 18 19 20 21 22 23 24 25 26 27 28
000
ASUS43 KJKL 290710
RWRJKL

EAST KENTUCKY HOURLY WEATHER ROUNDUP
NATIONAL WEATHER SERVICE JACKSON KY
300 AM EDT THU JUN 29 2017

NOTE: "FAIR" INDICATES FEW OR NO CLOUDS BELOW 12,000 FEET WITH
NO SIGNIFICANT WEATHER AND/OR OBSTRUCTIONS TO VISIBILITY.

* THESE REPORTS ARE NOT UNDER NWS QUALITY CONTROL AND MAY NOT
  REPORT WEATHER SUCH AS PRECIPITATION AND FOG.

KYZ079-080-083-085-087-088-110-112-115-119-120-290800
...EASTERN KENTUCKY...

CITY           SKY/WX    TMP DP  RH WIND       PRES   REMARKS
JACKSON        CLEAR     66  57  72 VRB3      30.12S
LONDON         PTCLDY    62  55  77 CALM      30.12S
SOMERSET*      CLOUDY    64  55  72 S5        30.11S
MONTICELLO*    PTCLDY    70  59  68 E6        30.11S
WILLIAMSBURG*  MOSUNNY   61  57  88 SE6       30.12S
MIDDLESBORO*   PTCLDY    58  58  99 CALM      30.16R
HARLAN APT*    MOSUNNY   59  55  88 CALM      30.16S
PIKE CO APT*     N/A     67  57  68 S6        30.13F
BIG SANDY APT* SUNNY     69  57  65 S7        30.12S
MOREHEAD APT*  CLOUDY    64  55  72 CALM      30.10S
ASHLAND*       CLOUDY    61  61 100 CALM      30.05F
$$

KYZ035-036-041-042-044-050-067-078-099-290800
...CENTRAL KENTUCKY...

CITY           SKY/WX    TMP DP  RH WIND       PRES   REMARKS
MT STERLING*   CLOUDY    61  57  88 SW5       30.09S
FLEMING/MASON* CLOUDY    64  58  81 S8        30.07F
DANVILLE*      PTCLDY    64  55  72 SW6       30.10R
LEXINGTON      CLOUDY    66  55  67 S6        30.07S
FRANKFORT      CLOUDY    63  55  75 CALM      30.04S
LOUISVILLE     CLOUDY    70  57  63 SE7       30.02S
LEBANON*         N/A     68  55  64 S10       30.07R
GLASGOW*       CLOUDY    67  57  69 S5        30.06S
BOWLING GREEN  CLOUDY    70  61  73 S5        30.04F
$$

KYZ091>093-OHZ055-061-077-WVZ005-015-034-035-042-290800
...SOUTHERN OHIO/WEST VIRGINIA...

CITY           SKY/WX    TMP DP  RH WIND       PRES   REMARKS
COVINGTON      CLOUDY    63  57  81 S8        30.02F
COLUMBUS       CLOUDY    65  55  70 S6        30.02F
DAYTON         CLOUDY    68  54  60 S14       30.01F
WILMINGTON     CLOUDY    62  58  86 S8        30.03F
HUNTINGTON     CLOUDY    63  57  81 S5        30.08R
CHARLESTON     CLOUDY    59  56  89 CALM      30.10S
PINEVILLE*     CLEAR     56  55  96 MISG      30.22F
BECKLEY        CLEAR     62  53  72 CALM      30.20S
BLUEFIELD      CLOUDY    64  52  64 SW9       30.22F
LOGAN CO APT*    N/A     68  55  64 CALM      30.14S
$$

VAZ002-007-008-TNZ017-027-036-066-071-290800
...SOUTHWEST VIRGINIA/EAST TENNESSEE...

CITY           SKY/WX    TMP DP  RH WIND       PRES   REMARKS
WISE*          PTCLDY    64  54  68 CALM      30.22S
JONESVILLE*      N/A     61  59  94 CALM      30.18S
ABINGDON*      CLOUDY    63  58  85 CALM      30.21S
BRISTOL        CLOUDY    63  57  81 N3        30.18R
MORRISTOWN*    SUNNY     66  61  82 CALM      30.14S
SEVIERVILLE*   SUNNY     63  57  82 CALM      30.13S
LAFOLLETTE*      N/A     63  59  88 NE7       30.17S
OAK RIDGE      PTCLDY    65  58  78 CALM      30.15R
CROSSVILLE     CLEAR     68  60  75 VRB3      30.16S
NASHVILLE      PTCLDY    72  62  71 CALM      30.06S
$$

...KEY TO REMARKS...
VSB - VISIBILITY IN MILES
WCI - WIND CHILL INDEX
HX  - HEAT INDEX

$$




USA.gov is the U.S. government's official web portal to all federal, state and local government web resources and services.